Location: Coopersdale
(40.3556°N, 78.9372°W)
Time: 01:55:16
(UTC+00:00)

Tiros 1 despin weight - Pass Details

Date: 25 January 2021
Orbit: 593 x 642 km, 48.2° (Epoch: 02 March)

Event Time Altitude Azimuth Distance (km) Brightness Sun altitude
Rises 18:36:08 0° 227° (SW) 2,900 ? 28.8°
Reaches altitude 10° 18:38:28 10° 224° (SW) 1,988 ? 28.7°
Maximum altitude 18:42:58 60° 145° (SE) 706 ? 28.4°
Drops below altitude 10° 18:47:25 10° 65° (ENE) 1,965 ? 28.1°
Sets 18:49:44 0° 62° (ENE) 2,864 ? 27.9°
